Weather observations for the past three days for
Metlakatla, Metlakatla Seaplane Base
| Date | Time (akdt) | Wind (mph) | Vis. (mi.) | Weather | Sky Cond. | Temperature (ºF) | Relative Humidity | Wind Chill (°F) | Heat Index (°F) | Pressure | Precipitation (in) | ||||||
|---|---|---|---|---|---|---|---|---|---|---|---|---|---|---|---|---|---|
| Air | Dwpt | 6 hour | altimeter (in) | sea level (mb) | 1 hr | 3 hr | 6 hr | ||||||||||
| Max. | Min. | ||||||||||||||||
| 05 | 19:56 | SE 3 | 10.00 | Fair | CLR | 59 | 52 | 78% | 30.03 | 1015.9 | |||||||
| 05 | 18:56 | Calm | 10.00 | Fair | CLR | 63 | 53.1 | 70% | 30.02 | 1015.8 | |||||||
| 05 | 17:56 | Vrbl 3 | 10.00 | Fair | CLR | 66 | 51.1 | 59% | 30.02 | 1015.7 | |||||||
| 05 | 16:56 | SW 8 | 10.00 | Fair | CLR | 64.9 | 54 | 68% | 30.02 | 1015.7 | |||||||
| 05 | 15:56 | SW 8 | 10.00 | Fair | CLR | 68 | 55 | 71.1 | 59 | 63% | 30.02 | 1015.8 | |||||
| 05 | 14:56 | SW 8 | 10.00 | Fair | CLR | 66.9 | 55 | 66% | 30.03 | 1016.1 | |||||||
| 05 | 13:56 | SW 8 | 10.00 | Fair | CLR | 66.9 | 54 | 63% | 30.05 | 1016.5 | |||||||
| 05 | 12:56 | W 8 | 10.00 | Fair | CLR | 66 | 54 | 65% | 30.06 | 1017.1 | |||||||
| 05 | 11:56 | SW 10 | 10.00 | Fair | CLR | 61 | 54 | 78% | 30.07 | 1017.4 | |||||||
| 05 | 09:56 | SW 5 | 10.00 | Fair | CLR | 60.1 | 52 | 60.1 | 52 | 75% | 30.07 | 1017.5 | |||||
| 05 | 08:56 | W 5 | 10.00 | Fair | CLR | 57.9 | 52 | 81% | 30.08 | 1017.5 | |||||||
| 05 | 07:56 | Calm | 10.00 | Fair | CLR | 55 | 51.1 | 87% | 30.07 | 1017.4 | |||||||
| 05 | 06:56 | Calm | 10.00 | Fair | CLR | 53.1 | 50 | 89% | 30.07 | 1017.3 | |||||||
| 05 | 05:56 | Calm | 10.00 | Fair | CLR | 54 | 50 | 87% | 30.06 | 1017.0 | |||||||
| 05 | 04:56 | Calm | 10.00 | Fair | CLR | 55 | 50 | 83% | 30.06 | 1016.9 | |||||||
| 05 | 03:56 | Calm | 10.00 | Fair | CLR | 55 | 50 | 61 | 55 | 83% | 30.05 | 1016.8 | |||||
| 05 | 02:56 | Calm | 10.00 | Fair | CLR | 57 | 51.1 | 81% | 30.06 | 1016.9 | |||||||
| 05 | 01:56 | NE 6 | 10.00 | Fair | CLR | 57 | 50 | 78% | 30.06 | 1016.9 | |||||||
| 05 | 00:56 | Vrbl 5 | 10.00 | Fair | CLR | 59 | 51.1 | 75% | 30.05 | 1016.7 | |||||||
| 04 | 23:56 | NE 5 | 10.00 | Fair | CLR | 59 | 50 | 72% | 30.05 | 1016.6 | |||||||
| 04 | 22:56 | E 5 | 10.00 | Fair | CLR | 59 | 51.1 | 75% | 30.05 | 1016.7 | |||||||
| 04 | 21:56 | Calm | 10.00 | Fair | CLR | 60.1 | 53.1 | 70 | 60.1 | 78% | 30.04 | 1016.4 | |||||
| 04 | 20:56 | E 6 | 10.00 | Fair | CLR | 61 | 52 | 72% | 30.04 | 1016.3 | |||||||
| 04 | 19:56 | Calm | 10.00 | Fair | CLR | 64 | 50 | 60% | 30.04 | 1016.2 | |||||||
| 04 | 18:56 | N 10 | 10.00 | Fair | CLR | 64 | 51.1 | 63% | 30.03 | 1015.9 | |||||||
| 04 | 17:56 | N 12 | 10.00 | Fair | CLR | 68 | 48.9 | 51% | 30.02 | 1015.7 | |||||||
| 04 | 16:56 | NE 3 | 10.00 | Fair | CLR | 69.1 | 50 | 51% | 30.03 | 1015.9 | |||||||
| 04 | 15:56 | NW 7 | 10.00 | Fair | CLR | 68 | 48.9 | 69.1 | 61 | 51% | 30.03 | 1016.1 | |||||
| 04 | 14:56 | N 3 | 10.00 | Fair | CLR | 68 | 52 | 57% | 30.04 | 1016.2 | |||||||
| 04 | 13:56 | Vrbl 3 | 10.00 | Fair | CLR | 66 | 53.1 | 63% | 30.05 | 1016.6 | |||||||
| 04 | 12:56 | W 5 | 10.00 | Fair | CLR | 64 | 53.1 | 68% | 30.05 | 1016.7 | |||||||
| 04 | 11:56 | N 10 | 10.00 | Fair | CLR | 64.9 | 52 | 63% | 30.05 | 1016.7 | |||||||
| 04 | 10:56 | NW 13 | 10.00 | Fair | CLR | 63 | 51.1 | 65% | 30.05 | 1016.7 | |||||||
| 04 | 09:56 | NW 12 | 10.00 | Fair | CLR | 63 | 50 | 63 | 57 | 63% | 30.05 | 1016.7 | |||||
| 04 | 08:56 | Calm | 10.00 | Fair | CLR | 61 | 51.1 | 70% | 30.05 | 1016.6 | |||||||
| 04 | 07:56 | N 5 | 10.00 | A Few Clouds | FEW002 | 60.1 | 51.1 | 72% | 30.04 | 1016.5 | |||||||
| 04 | 06:56 | Calm | 10.00 | Fair | CLR | 57.9 | 51.1 | 78% | 30.03 | 1016.1 | |||||||
| 04 | 05:56 | NW 7 | 10.00 | Fair | CLR | 57.9 | 50 | 75% | 30.02 | 1015.6 | |||||||
| 04 | 04:56 | Calm | 10.00 | Fair | CLR | 59 | 50 | 72% | 30.01 | 1015.2 | |||||||
| 04 | 03:56 | Calm | 10.00 | Fair | CLR | 59 | 50 | 63 | 59 | 72% | 30 | 1014.9 | |||||
| 04 | 02:56 | NW 6 | 10.00 | Fair | CLR | 61 | 50 | 67% | 29.99 | 1014.6 | |||||||
| 04 | 01:56 | Calm | 10.00 | Fair | CLR | 61 | 50 | 67% | 29.98 | 1014.2 | |||||||
| 04 | 00:56 | N 8 | 10.00 | Fair | CLR | 63 | 50 | 63% | 29.97 | 1013.9 | |||||||
| 03 | 23:56 | E 5 | 10.00 | Fair | CLR | 61 | 52 | 72% | 29.96 | 1013.6 | |||||||
| 03 | 22:56 | N 7 | 10.00 | Fair | CLR | 63 | 51.1 | 65% | 29.95 | 1013.3 | |||||||
| 03 | 21:56 | NW 7 | 10.00 | Fair | CLR | 62.1 | 52 | 69.1 | 62.1 | 70% | 29.94 | 1013.0 | |||||
| 03 | 20:56 | Vrbl 5 | 10.00 | Fair | CLR | 62.1 | 52 | 70% | 29.93 | 1012.7 | |||||||
| 03 | 19:56 | N 7 | 10.00 | Fair | CLR | 64 | 52 | 65% | 29.92 | 1012.4 | |||||||
| 03 | 18:56 | N 10 | 10.00 | Fair | CLR | 68 | 52 | 57% | 29.91 | 1011.8 | |||||||
| 03 | 17:56 | N 7 | 10.00 | Fair | CLR | 69.1 | 53.1 | 57% | 29.89 | 1011.3 | |||||||
| 03 | 16:56 | N 12 | 10.00 | Fair | CLR | 68 | 53.1 | 59% | 29.88 | 1010.9 | |||||||
| 03 | 15:56 | N 10 | 10.00 | Fair | CLR | 68 | 53.1 | 68 | 61 | 59% | 29.87 | 1010.7 | 0.01 | ||||
| 03 | 14:56 | NW 8 | 10.00 | Fair | CLR | 64.9 | 53.1 | 66% | 29.86 | 1010.4 | 0.01 | ||||||
| 03 | 13:56 | NW 14 | 10.00 | Fair | CLR | 64.9 | 53.1 | 66% | 29.85 | 1010.0 | |||||||
| 03 | 12:56 | NW 14 | 10.00 | Fair | CLR | 64 | 53.1 | 68% | 29.85 | 1009.8 | |||||||
| 03 | 11:56 | NW 9 | 10.00 | Fair | CLR | 63 | 53.1 | 70% | 29.85 | 1009.8 | |||||||
| 03 | 10:56 | NW 10 | 10.00 | Fair | CLR | 63 | 52 | 68% | 29.83 | 1009.4 | |||||||
| 03 | 09:56 | NW 10 | 10.00 | Fair | CLR | 61 | 52 | 62.1 | 55 | 72% | 29.83 | 1009.2 | |||||
| 03 | 08:56 | N 10 | 10.00 | Fair | CLR | 61 | 51.1 | 70% | 29.82 | 1008.9 | |||||||
| 03 | 07:56 | N 8 | 10.00 | Fair | CLR | 59 | 51.1 | 75% | 29.81 | 1008.6 | |||||||
| 03 | 05:56 | N 8 | 10.00 | Fair | CLR | 59 | 50 | 72% | 29.79 | 1007.9 | |||||||
| 03 | 04:56 | N 7 | 10.00 | Fair | CLR | 57.9 | 51.1 | 78% | 29.77 | 1007.3 | |||||||
| 03 | 03:56 | N 9 | 10.00 | Fair | CLR | 57 | 51.1 | 60.1 | 55.9 | 81% | 29.77 | 1007.1 | |||||
| 03 | 01:56 | Calm | 10.00 | Fair | CLR | 57.9 | 52 | 81% | 29.75 | 1006.7 | |||||||
| 03 | 00:56 | N 6 | 10.00 | Fair | CLR | 59 | 52 | 78% | 29.74 | 1006.2 | |||||||
| 02 | 23:56 | Calm | 10.00 | Fair | CLR | 59 | 52 | 78% | 29.73 | 1005.8 | |||||||
| 02 | 22:56 | Calm | 10.00 | Fair | CLR | 60.1 | 52 | 75% | 29.71 | 1005.3 | |||||||
| 02 | 21:56 | Calm | 10.00 | Fair | CLR | 57 | 53.1 | 64.9 | 57 | 87% | 29.71 | 1005.2 | |||||
| 02 | 20:56 | Calm | 10.00 | Fair | CLR | 59 | 52 | 78% | 29.7 | 1004.9 | |||||||
| Date | Time (akdt) | Wind (mph) | Vis. (mi.) | Weather | Sky Cond. | Air | Dwpt | Max. | Min. | Relative Humidity | Wind Chill (°F) | Heat Index (°F) | altimeter (in) | sea level (mb) | 1 hr | 3 hr | 6 hr |
| 6 hour | |||||||||||||||||
| Temperature (ºF) | Pressure | Precipitation (in) | |||||||||||||||